[[{"header":{"parameterUnit":"m.s-1","parameterCategory":1,"la1":30.2991,"la2":30.254,"lo1":-89.0895,"lo2":-89.0444,"dy":0.0017,"dx":0.0017,"nx":28,"ny":28,"refTime":"2024-08-23T21:00:00:Z","depth":0,"parameterNumber":2,"parameterNumberName":"U-component_of_WINDS"},"data":[0,0,0,0,0,0,0,0,0,0,0,0,0,0,0,0,0,0,0,0,0,0,0,0,0,0,0,0,0,0,0,0,0,0,0,0,0,0,0,0,0,0,0,0,0,0,0,0,0,0,0,0,0,0,0,0,0,0,-3.7052,-3.7052,0,-3.706,-3.706,-3.706,-3.6962,-3.6959,-3.6956,-3.6954,-3.6963,-3.6965,-3.6968,0,0,0,0,0,0,0,0,0,0,0,0,0,-3.6949,-3.6951,-3.7052,-3.7052,-3.7052,-3.706,-3.706,-3.706,-3.6962,-3.6959,-3.6956,-3.6952,-3.6962,-3.6965,-3.6968,0,0,0,0,0,0,0,0,0,0,0,0,0,-3.6979,-3.6952,-3.7051,-3.7004,-3.7,-3.706,-3.706,-3.706,-3.6963,-3.6959,-3.6955,-3.6951,-3.6961,-3.6965,-3.6969,-3.7076,0,0,-3.6981,-3.6983,0,0,0,0,0,0,0,0,-3.6978,-3.6983,-3.7011,-3.7007,-3.7003,-3.7006,-3.7027,-3.7066,-3.6964,-3.6977,-3.6954,-3.6949,-3.698,-3.6983,-3.6993,-3.7076,-3.7076,-3.6982,-3.6984,-3.6986,-3.6987,0,0,0,0,0,0,0,-3.6976,-3.6982,-3.7055,-3.7011,-3.7006,-3.6981,-3.6981,-3.7034,-3.7001,-3.6975,-3.6968,-3.6971,-3.6977,-3.6989,-3.6993,-3.7076,-3.6982,-3.6985,-3.6988,-3.6989,-3.7245,-3.7249,0,0,0,0,0,0,-3.698,-3.6981,-3.7055,-3.7055,-3.698,-3.6987,-3.6986,-3.7009,-3.7,-3.6995,-3.6974,-3.6966,-3.6984,-3.6988,-3.6992,-3.7115,-3.6986,-3.699,-3.6992,-3.7241,-3.7246,-3.7251,0,0,0,0,0,0,-3.6978,-3.6988,-3.7054,-3.7016,-3.7023,-3.6993,-3.7019,-3.7011,-3.7023,-3.6999,-3.6993,-3.6992,-3.6981,-3.6987,-3.7055,-3.7114,-3.6992,-3.6996,-3.7236,-3.7243,-3.7249,-3.7363,0,0,0,0,0,0,-3.6976,-3.6987,-3.7028,-3.7018,-3.7025,-3.7117,-3.7022,-3.7014,-3.703,-3.702,-3.7015,-3.701,-3.6978,-3.705,-3.7059,-3.7118,-3.6999,-3.7231,-3.7239,-3.7247,-3.7353,-3.7372,-3.7388,0,0,0,0,0,-3.6972,-3.706,-3.7031,-3.704,-3.7075,-3.7121,-3.7125,-3.7087,-3.7036,-3.7076,-3.706,-3.701,-3.7107,-3.7057,-3.7068,-3.7128,-3.7227,-3.7237,-3.7246,-3.7346,-3.7369,-3.7388,0,0,0,0,0,0,-3.7078,-3.7058,-3.7025,-3.7112,-3.7119,-3.7104,-3.7154,-3.7113,-3.7134,-3.7123,-3.7075,-3.7075,-3.7151,-3.7146,-3.7092,-3.723,-3.7157,-3.717,-3.723,-3.7251,-3.7268,-3.7267,-3.7002,0,0,0,0,0,-3.7112,-3.7151,-3.7131,-3.721,-3.7215,-3.7184,-3.7203,-3.7173,-3.7178,-3.718,-3.717,-3.7177,-3.7208,-3.723,-3.7257,-3.7353,-3.7349,-3.74,-3.7417,-3.7431,-3.7442,-3.749,-3.7512,-3.7283,-3.7283,-3.7283,0,0,-3.7182,-3.7175,-3.7203,-3.7231,-3.7233,-3.7273,-3.7187,-3.7235,-3.7264,-3.7187,-3.725,-3.7244,-3.7248,-3.733,-3.7366,-3.7329,-3.7505,-3.7444,-3.7455,-3.7458,-3.7502,-3.7524,-3.7543,-3.7289,-3.7288,-3.7287,0,0,-3.7329,-3.7329,-3.7393,-3.7397,-3.74,-3.7379,-3.7395,-3.7386,-3.7378,-3.7441,-3.7384,-3.7419,-3.7475,-3.7479,-3.7489,-3.7638,-3.7592,-3.7649,-3.7739,-3.7787,-3.7804,-3.782,-3.7871,-3.7891,-3.7659,-3.766,-3.766,0,-3.7415,-3.7474,-3.7432,-3.7483,-3.7496,-3.7428,-3.7493,-3.7498,-3.7511,-3.7522,-3.748,-3.7548,-3.7546,-3.7627,-3.7664,-3.7675,-3.769,-3.7648,-3.7805,-3.7821,-3.7835,-3.7883,-3.7903,-3.7666,-3.7666,-3.7665,-3.7664,0,-3.7578,-3.7621,-3.7672,-3.7686,-3.7705,-3.7763,-3.7729,-3.7754,-3.7722,-3.7705,-3.7769,-3.7765,-3.779,-3.7807,-3.7777,-3.7884,-3.7861,-3.7814,-3.7739,-3.7864,-3.7908,-3.7927,-3.7676,-3.7674,-3.7672,-3.767,0,0,-3.7792,-3.7781,-3.78,-3.7805,-3.7804,-3.7835,-3.789,-3.7914,-3.7935,-3.7946,-3.7989,-3.8038,-3.7994,-3.8005,-3.7975,-3.8017,-3.8133,-3.7964,-3.7963,-3.7994,-3.8248,-3.8283,-3.8305,-3.8103,-3.8107,-3.8109,-3.8247,0,-3.7934,-3.8025,-3.7988,-3.8083,-3.812,-3.8056,-3.8103,-3.8107,-3.8093,-3.8123,-3.8107,-3.8141,-3.8081,-3.8087,-3.8126,-3.8111,-3.8183,-3.81,-3.8142,-3.8144,-3.8141,-3.8329,-3.8365,-3.8496,-3.8265,-3.8268,-3.827,0,-3.8111,-3.8129,-3.8227,-3.8217,-3.8232,-3.8275,-3.8293,-3.8322,-3.8325,-3.8312,-3.8325,-3.8285,-3.8336,-3.8264,-3.8334,-3.8279,-3.8294,-3.8289,-3.8293,-3.8294,-3.8213,-3.8333,-3.8537,-3.8556,-3.8297,-3.8295,-3.8293,0,-3.8255,-3.8303,-3.8367,-3.8373,-3.8365,-3.8396,-3.8394,-3.8393,-3.8409,-3.8426,-3.8436,-3.8459,-3.8471,-3.8489,-3.8456,-3.8407,-3.853,-3.8455,-3.8519,-3.852,-3.8547,-3.8545,-3.8754,-3.856,-3.856,-3.8559,-3.8559,0,-3.8416,-3.8478,-3.8431,-3.8471,-3.8538,-3.8495,-3.8563,-3.8554,-3.8553,-3.8589,-3.8536,-3.8571,-3.8527,-3.8557,-3.8532,-3.8593,-3.86,-3.8589,-3.8582,-3.8593,-3.8594,-3.8601,-3.859,-3.8565,-3.8563,-3.8562,-3.8562,0,-3.8587,-3.8558,-3.8624,-3.861,-3.8608,-3.8658,-3.8646,-3.8682,-3.8663,-3.871,-3.8718,-3.869,-3.8723,-3.8693,-3.8725,-3.8707,-3.8788,-3.8768,-3.8787,-3.8781,-3.8846,-3.8839,-3.9065,-3.9092,-3.8882,-3.8884,-3.8886,0,-3.869,-3.8736,-3.8727,-3.8747,-3.8748,-3.8782,-3.8798,-3.8758,-3.8777,-3.8783,-3.8818,-3.8846,-3.8867,-3.8923,-3.8905,-3.8929,-3.8908,-3.8986,-3.8911,-3.8921,-3.8907,-3.8904,-3.8908,-3.9,-3.9003,-3.9005,-3.9006,0,-3.8877,-3.886,-3.8885,-3.8906,-3.8926,-3.8941,-3.8951,-3.897,-3.8929,-3.8953,-3.8986,-3.9002,-3.9034,-3.9063,-3.9081,-3.9078,-3.9035,-3.903,-3.9046,-3.9057,-3.9065,-3.906,-3.8826,-3.9025,-3.9023,-3.9022,-3.9021,-3.902,-3.9016,-3.9053,-3.9052,-3.9082,-3.9085,-3.9095,-3.9127,-3.9113,-3.914,-3.9162,-3.9137,-3.9177,-3.9178,-3.9198,-3.92,-3.9231,-3.9198,-3.9221,-3.9227,-3.9233,-3.9242,-3.9062,-3.9234,-3.9234,-3.9233,-3.9233,-3.9232,0,-3.9198,-3.9194,-3.9222,-3.9237,-3.926,-3.9218,-3.9226,-3.9248,-3.9284,-3.9288,-3.9309,-3.9347,-3.9374,-3.9359,-3.9382,-3.9409,-3.939,-3.9417,-3.9413,-3.9413,-3.927,-3.9253,-3.9431,-3.9431,-3.9431,-3.9431,-3.9431,-3.9431,-3.9295,-3.9355,-3.9339,-3.9399,-3.9395,-3.9433,-3.9441,-3.945,-3.9453,-3.9497,-3.9519,-3.9509,-3.9505,-3.9527,-3.9551,-3.9545,-3.9555,-3.9589,-3.9577,-3.9443,-3.9423,-3.9405,-3.9388,-3.9592,-3.9592,-3.9716,-3.9717,-3.9718]},{"header":{"parameterUnit":"m.s-1","parameterCategory":1,"la1":30.2991,"la2":30.254,"lo1":-89.0895,"lo2":-89.0444,"dy":0.0017,"dx":0.0017,"nx":28,"ny":28,"refTime":"2024-08-23T21:00:00:Z","depth":0,"parameterNumber":3,"parameterNumberName":"V-component_of_WINDS"},"data":[0,0,0,0,0,0,0,0,0,0,0,0,0,0,0,0,0,0,0,0,0,0,0,0,0,0,0,0,0,0,0,0,0,0,0,0,0,0,0,0,0,0,0,0,0,0,0,0,0,0,0,0,0,0,0,0,0,0,2.9074,2.9074,0,2.9095,2.9096,2.9096,2.9062,2.9061,2.9059,2.9058,2.9077,2.9079,2.908,0,0,0,0,0,0,0,0,0,0,0,0,0,2.9001,2.9002,2.9074,2.9074,2.9074,2.9095,2.9096,2.9096,2.9062,2.9061,2.9059,2.9058,2.9077,2.9079,2.9081,0,0,0,0,0,0,0,0,0,0,0,0,0,2.9028,2.9003,2.9074,2.906,2.9059,2.9095,2.9096,2.9096,2.9062,2.906,2.9059,2.9057,2.9076,2.9079,2.9081,2.9131,0,0,2.9088,2.9089,0,0,0,0,0,0,0,0,2.9027,2.9031,2.9062,2.9061,2.906,2.9074,2.9077,2.9108,2.9063,2.9061,2.9058,2.9056,2.9078,2.908,2.9087,2.9132,2.9132,2.9088,2.909,2.9091,2.9092,0,0,0,0,0,0,0,2.9025,2.903,2.9082,2.9062,2.9061,2.9052,2.9054,2.9082,2.9079,2.9061,2.9059,2.9062,2.9077,2.9085,2.9088,2.9133,2.9088,2.909,2.9092,2.9093,2.9218,2.922,0,0,0,0,0,0,2.9025,2.9029,2.9082,2.9083,2.9039,2.9055,2.9057,2.9071,2.9078,2.9078,2.9063,2.906,2.9082,2.9085,2.9088,2.9146,2.9091,2.9093,2.9095,2.9216,2.9218,2.9221,0,0,0,0,0,0,2.9024,2.903,2.9081,2.9055,2.9061,2.9058,2.9074,2.9073,2.9081,2.908,2.9079,2.9073,2.9081,2.9085,2.912,2.9146,2.9094,2.9096,2.9214,2.9217,2.922,2.9263,0,0,0,0,0,0,2.9022,2.903,2.9049,2.9056,2.9062,2.9113,2.9076,2.9074,2.9086,2.9082,2.9089,2.9088,2.908,2.9117,2.9123,2.9149,2.9098,2.9212,2.9215,2.9219,2.9259,2.9267,2.9274,0,0,0,0,0,2.9019,2.906,2.905,2.9057,2.9087,2.9115,2.9119,2.9109,2.9088,2.9107,2.9106,2.9088,2.9143,2.9121,2.9127,2.9154,2.921,2.9214,2.9218,2.9256,2.9265,2.9273,0,0,0,0,0,0,2.9055,2.9061,2.905,2.9094,2.9105,2.9109,2.9133,2.9119,2.9135,2.913,2.9117,2.9119,2.9157,2.9159,2.9135,2.9202,2.9173,2.9179,2.9199,2.9208,2.9215,2.9213,2.91,0,0,0,0,0,2.9069,2.9092,2.9095,2.9134,2.914,2.9136,2.9148,2.914,2.9149,2.9153,2.9155,2.9164,2.9183,2.9196,2.9214,2.926,2.926,2.9282,2.9289,2.9295,2.9299,2.9323,2.9332,2.9234,2.9234,2.9234,0,0,2.9096,2.9102,2.9117,2.9142,2.9148,2.9172,2.9139,2.9166,2.9183,2.9157,2.919,2.9192,2.9202,2.9243,2.9261,2.9246,2.9327,2.93,2.9305,2.9306,2.9328,2.9337,2.9346,2.9237,2.9237,2.9236,0,0,2.9157,2.9165,2.9198,2.9206,2.9217,2.9214,2.9223,2.923,2.923,2.9264,2.9245,2.9264,2.9298,2.9306,2.9314,2.9379,2.9362,2.9386,2.9422,2.9446,2.9453,2.946,2.9482,2.949,2.939,2.9391,2.9391,0,2.9189,2.9225,2.9216,2.9244,2.9255,2.9234,2.9266,2.9274,2.9291,2.9298,2.9282,2.9324,2.9329,2.937,2.9387,2.9394,2.9402,2.9384,2.9453,2.946,2.9466,2.9487,2.9495,2.9393,2.9393,2.9393,2.9392,0,2.9264,2.9289,2.9314,2.9331,2.9345,2.9375,2.937,2.9385,2.9376,2.9375,2.9409,2.9415,2.9433,2.9442,2.9434,2.9483,2.9473,2.9456,2.9425,2.9478,2.9497,2.9505,2.9397,2.9396,2.9395,2.9394,0,0,2.9347,2.936,2.9369,2.9376,2.9388,2.9407,2.9436,2.9455,2.9467,2.948,2.9503,2.9533,2.9516,2.9525,2.9517,2.9538,2.9588,2.9517,2.9517,2.9529,2.9642,2.9654,2.9664,2.9578,2.958,2.9581,2.9641,0,2.9407,2.9458,2.9451,2.95,2.9522,2.9503,2.9528,2.9538,2.9537,2.9556,2.9555,2.9576,2.9553,2.9559,2.9579,2.9578,2.961,2.9574,2.9598,2.9599,2.9595,2.9674,2.9687,2.9743,2.9648,2.965,2.9651,0,2.9484,2.95,2.9551,2.9559,2.9568,2.9591,2.9608,2.9626,2.9636,2.9635,2.9646,2.9634,2.9662,2.9633,2.9671,2.9646,2.9656,2.9657,2.9659,2.966,2.9627,2.9675,2.9761,2.9769,2.9663,2.9662,2.9661,0,2.9538,2.9572,2.9607,2.9614,2.9625,2.9642,2.9647,2.9655,2.9667,2.9682,2.9689,2.9706,2.9716,2.9729,2.9722,2.9702,2.9761,2.9731,2.9759,2.9759,2.9771,2.977,2.9858,2.978,2.978,2.978,2.9779,0,2.9605,2.9636,2.9632,2.9653,2.9688,2.9679,2.9714,2.9716,2.9724,2.9745,2.973,2.9749,2.974,2.9758,2.9753,2.9785,2.9789,2.9788,2.9786,2.9788,2.9788,2.9793,2.9788,2.9782,2.9781,2.9781,2.9781,0,2.967,2.9668,2.9705,2.9713,2.9715,2.974,2.9746,2.9766,2.9765,2.9792,2.9797,2.9796,2.9817,2.9812,2.9835,2.9831,2.9871,2.9865,2.9867,2.9865,2.9893,2.989,2.9986,2.9997,2.9914,2.9914,2.9915,0,2.9712,2.9736,2.9747,2.976,2.9767,2.9788,2.9801,2.9794,2.9807,2.9821,2.9838,2.9859,2.9874,2.9909,2.9909,2.9926,2.992,2.9952,2.9922,2.9924,2.9918,2.9916,2.9918,2.9957,2.9958,2.9959,2.996,0,2.9786,2.9785,2.9803,2.9822,2.9838,2.9852,2.9865,2.9876,2.987,2.9886,2.9908,2.992,2.9944,2.9964,2.998,2.9984,2.9971,2.997,2.9977,2.9979,2.9979,2.9978,2.9882,2.9967,2.9966,2.9966,2.9965,2.9965,2.984,2.986,2.9871,2.9893,2.9902,2.9914,2.9933,2.9935,2.9954,2.9973,2.9968,2.9993,3.0002,3.0023,3.0029,3.0048,3.0035,3.0046,3.0048,3.0051,3.0054,2.9978,3.0051,3.0051,3.0051,3.005,3.005,0,2.9912,2.9919,2.9939,2.9958,2.9975,2.9962,2.9976,2.999,3.0013,3.0023,3.0039,3.0064,3.0084,3.0086,3.0104,3.0118,3.0113,3.0123,3.0121,3.0122,3.0064,3.0056,3.0128,3.0128,3.0128,3.0128,3.0128,3.0128,2.9952,2.9986,2.9985,3.0023,3.0029,3.0054,3.0062,3.0073,3.0082,3.0111,3.0127,3.0129,3.0136,3.0155,3.0172,3.0172,3.0178,3.0191,3.0189,3.0134,3.0126,3.0119,3.0111,3.0193,3.0193,3.0245,3.0245,3.0245]}]]